Flag for U.S.A. Weather past 2 weeks in Chandler, Arizona, U.S.A.

Now
79 °F

Clear.


Feels Like: 77 °F
Forecast: 60 / 90 °F
Wind: 3 mph from Southwest

Location: Williams Gateway Airport


UV Index: 7 (High)

Visibility: 10 mi


Pressure: 29.74 "Hg

Humidity: 12%

Dew point: 23 °F

Location of ChandlerLocation

Historic Weather in Chandler

°F

Chandler temperature yesterday

Maximum temperature yesterday: 86 °F (at 2:47 PM)
Minimum temperature yesterday: 52 °F (at 2:35 AM)
Average temperature yesterday: 65 °F

Past Weeks' High & Low Weather Summary

 TemperatureHumidityPressure
High93 °F (Apr 9, 3:47 PM)53% (Apr 3, 3:55 AM)30.17 "Hg (Apr 3, 3:55 AM)
Low43 °F (Apr 3, 3:55 AM)4% (Apr 11, 12:54 PM)29.70 "Hg (Apr 12, 5:47 PM)
Average65 °F22%29.92 "Hg
* Reported Apr 1 6:47 PM — Apr 16 6:47 PM, Chandler, Weather by CustomWeather, © 2014

Note: Actual official high and low records may vary slightly from our data, if they occured in-between our weather recording intervals... More about our weather records

Advertising

Historic Weather Conditions — Data for Previous 24 hours

 ConditionsComfort  
Time TempWeatherWind HumidityBarometerVisibility
6:47 PM
Apr 16
84 °FSunny.7 mph7%29.71 "Hg45 mi
5:47 PM88 °FSunny.7 mph6%29.71 "Hg45 mi
3:47 PM88 °FScattered clouds.9 mph6%29.73 "Hg45 mi
2:49 PM86 °FScattered clouds.6 mph6%29.74 "Hg45 mi
1:47 PM86 °FScattered clouds.7 mph6%29.76 "Hg45 mi
12:47 PM84 °FScattered clouds.5 mph8%29.78 "Hg45 mi
11:47 AM84 °FSunny.7 mph8%29.79 "Hg45 mi
10:47 AM81 °FSunny.3 mph9%29.81 "Hg35 mi
9:47 AM79 °FSunny.6 mph10%29.82 "Hg45 mi
8:47 AM72 °FSunny.8 mph15%29.80 "Hg45 mi
7:47 AM63 °FSunny.8 mph20%29.80 "Hg45 mi
6:47 AM54 °FSunny.8 mph28%29.80 "Hg45 mi
5:47 AM54 °FClear.5 mph22%29.78 "Hg20 mi
5:35 AM54 °FClear.6 mph24%29.78 "Hg10 mi
5:15 AM55 °FClear.7 mph23%29.77 "Hg10 mi
4:55 AM57 °FClear.9 mph18%29.76 "Hg10 mi
4:35 AM57 °FClear.8 mph18%29.77 "Hg10 mi
4:15 AM57 °FClear.9 mph18%29.76 "Hg10 mi
3:55 AM55 °FClear.9 mph19%29.76 "Hg10 mi
3:15 AM55 °FClear.8 mph26%29.77 "Hg10 mi
2:55 AM55 °FClear.6 mph28%29.77 "Hg10 mi
2:35 AM54 °FClear.6 mph33%29.77 "Hg10 mi
2:15 AM57 °FClear.5 mph21%29.78 "Hg10 mi
1:55 AM57 °FClear.7 mph21%29.78 "Hg10 mi
1:35 AM57 °FClear.6 mph25%29.78 "Hg10 mi
1:15 AM57 °FClear.7 mph27%29.78 "Hg10 mi
12:55 AM59 °FClear.3 mph25%29.78 "Hg10 mi
12:35 AM61 °FClear.8 mph25%29.78 "Hg10 mi
12:15 AM61 °FClear.8 mph23%29.78 "Hg10 mi
11:55 PM
Apr 15
61 °FClear.7 mph23%29.78 "Hg10 mi
11:35 PM63 °FClear.5 mph22%29.78 "Hg10 mi
11:15 PM63 °FClear.5 mph20%29.79 "Hg10 mi
10:55 PM63 °FClear.5 mph20%29.78 "Hg10 mi
10:35 PM63 °FClear.No wind22%29.78 "Hg10 mi
10:15 PM64 °FClear.No wind14%29.78 "Hg10 mi
9:55 PM64 °FClear.3 mph14%29.78 "Hg10 mi
9:35 PM68 °FClear.3 mph12%29.78 "Hg10 mi
9:15 PM72 °FClear.5 mph13%29.78 "Hg10 mi
8:55 PM72 °FClear.No wind11%29.78 "Hg10 mi
8:15 PM79 °FClear.7 mph8%29.78 "Hg10 mi
Weather by CustomWeather, © 2014

See weather overview